Date,TemperatureHighF,TemperatureAvgF,TemperatureLowF,DewpointHighF,DewpointAvgF,DewpointLowF,HumidityHigh,HumidityAvg,HumidityLow,PressureMaxIn,PressureMinIn,WindSpeedMaxMPH,WindSpeedAvgMPH,GustSpeedMaxMPH,PrecipitationSumIn
2015-1-1,43,38,35,-100,0,200,0,0,100,0.00,40.00,0,0,0,0.00
2015-1-2,50,44,40,-100,0,200,0,0,100,0.00,40.00,0,0,0,0.00
2015-1-3,62,57,50,-100,0,200,0,0,100,0.00,40.00,0,0,0,0.00
2015-1-4,52,42,31,-100,0,200,0,0,100,0.00,40.00,0,0,0,0.00
2015-1-5,39,29,23,-100,0,200,0,0,100,0.00,40.00,0,0,0,0.00
2015-1-6,45,35,29,-100,0,200,0,0,100,0.00,40.00,0,0,0,0.00
2015-1-7,33,25,15,-100,0,200,0,0,100,0.00,40.00,0,0,0,0.00
2015-1-8,21,17,10,-100,0,200,0,0,100,0.00,40.00,0,0,0,0.00
2015-1-9,27,24,20,-100,0,200,0,0,100,0.00,40.00,0,0,0,0.00
2015-1-10,40,30,18,-100,0,200,0,0,100,0.00,40.00,0,0,0,0.00
2015-1-11,49,41,36,-100,0,200,0,0,100,0.00,40.00,0,0,0,0.00
2015-1-12,49,41,32,-100,0,200,0,0,100,0.00,40.00,0,0,0,0.00
2015-1-13,32,30,29,-100,0,200,0,0,100,0.00,40.00,0,0,0,0.00
2015-1-14,38,32,29,-100,0,200,0,0,100,0.00,40.00,0,0,0,0.00
2015-1-15,43,36,32,-100,0,200,0,0,100,0.00,40.00,0,0,0,0.00
2015-1-16,57,41,30,-100,0,200,0,0,100,0.00,40.00,0,0,0,0.00
2015-1-17,58,47,39,-100,0,200,0,0,100,0.00,40.00,0,0,0,0.00
2015-1-18,63,50,40,-100,0,200,0,0,100,0.00,40.00,0,0,0,0.00
2015-1-19,66,55,43,-100,0,200,0,0,100,0.00,40.00,0,0,0,0.00
2015-1-20,59,50,46,-100,0,200,0,0,100,0.00,40.00,0,0,0,0.00
2015-1-21,61,48,36,-100,0,200,0,0,100,0.00,40.00,0,0,0,0.00
2015-1-22,49,46,43,-100,0,200,0,0,100,0.00,40.00,0,0,0,0.00
2015-1-23,43,39,36,-100,0,200,0,0,100,0.00,40.00,0,0,0,0.00
2015-1-24,58,42,30,-100,0,200,0,0,100,0.00,40.00,0,0,0,0.00
2015-1-25,58,44,41,-100,0,200,0,0,100,0.00,40.00,0,0,0,0.00
2015-1-26,53,45,40,-100,0,200,0,0,100,0.00,40.00,0,0,0,0.00
2015-1-27,56,46,40,-100,0,200,0,0,100,0.00,40.00,0,0,0,0.00